Weather History for KICT - December, 2014

Change the Weather History Date:

Monday, December 29, 2014

  Actual Average Record
Temperature  
Mean Temperature 33 °F 32 °F  
Max Temperature 43 °F 41 °F 66 °F (1984)
Min Temperature 22 °F 22 °F -9 °F (1983)
Degree Days  
Heating Degree Days 32 33  
Month to date heating degree days 727 901  
Since 1 July heating degree days 1607 1777  
Cooling Degree Days 0 0  
Month to date cooling degree days 0 0  
Year to date cooling degree days 1849 1686  
Moisture  
Dew Point 21 °F    
Average Humidity 63    
Maximum Humidity 81    
Minimum Humidity 44    
Precipitation  
Precipitation T in 0.03 in 0.31 in (1891)
Month to date precipitation 1.22 1.15  
Year to date precipitation 25.53 32.59  
Snow  
Snow T in 0.10 in 1.00 in (2009)
Month to date snowfall 2.7 3.9  
Since 1 July snowfall 4.5 5.3  
Snow Depth 0.00 in    
Sea Level Pressure  
Sea Level Pressure 30.28 in    
Wind  
Wind Speed 11 mph (NE)    
Max Wind Speed 21 mph    
Max Gust Speed 29 mph    
Visibility 10 miles    
Events Snow    
T = Trace of Precipitation, MM = Missing Value Source: NWS Daily Summary

Daily Weather History Graph

Daily Weather History Graph

Search for Another Location

Airport or City:

Trip Planner

Search our weather history database for the weather conditions in past years. The results will help you decide how hot, cold, wet, or windy it might be!

Date:

Astronomy

Dec. 29, 2014 Rise Set
Actual Time 7:44 AM CST 5:19 PM CST
Civil Twilight 7:14 AM CST 5:48 PM CST
Nautical Twilight 6:42 AM CST 6:21 PM CST
Astronomical Twilight 6:10 AM CST 6:53 PM CST
Moon 12:51 PM CST (12/29) 1:07 AM CST (12/29)
Length of Visible Light 10h 34m
Length of Day
9h 35m
First Quarter, 61% of the Moon is Illuminated
Dec 29
First Quarter
Jan 4
Full
Jan 13
Last Quarter
Jan 20
New
Jan 26
First Quarter

Hourly Weather History & Observations

Time (CST) Temp. Windchill Dew Point Humidity Pressure Visibility Wind Dir Wind Speed Gust Speed Precip Events Conditions
12:53 AM 26.1 °F 19.4 °F 17.1 °F 69% 30.17 in 10.0 mi ESE 5.8 mph - N/A   Partly Cloudy
1:53 AM 25.0 °F 20.7 °F 17.1 °F 72% 30.16 in 10.0 mi East 3.5 mph - N/A   Partly Cloudy
2:53 AM 25.0 °F 17.1 °F 17.1 °F 72% 30.17 in 10.0 mi East 6.9 mph - N/A   Clear
3:53 AM 21.9 °F 17.2 °F 16.0 °F 78% 30.17 in 10.0 mi East 3.5 mph - N/A   Clear
4:53 AM 24.1 °F 18.2 °F 17.1 °F 75% 30.19 in 10.0 mi ENE 4.6 mph - N/A   Clear
5:53 AM 23.0 °F 15.8 °F 16.0 °F 74% 30.19 in 10.0 mi ENE 5.8 mph - N/A   Partly Cloudy
6:53 AM 23.0 °F 15.8 °F 17.1 °F 78% 30.22 in 10.0 mi NE 5.8 mph - N/A   Partly Cloudy
7:53 AM 24.1 °F 16.0 °F 18.0 °F 77% 30.22 in 10.0 mi NE 6.9 mph - N/A   Partly Cloudy
8:53 AM 28.0 °F 21.7 °F 21.0 °F 75% 30.25 in 10.0 mi NNE 5.8 mph - N/A   Partly Cloudy
9:53 AM 33.8 °F 27.0 °F 24.8 °F 70% 30.23 in 10.0 mi NNE 8.1 mph - N/A   Partly Cloudy
10:53 AM 37.0 °F 30.4 °F 24.1 °F 59% 30.27 in 10.0 mi ENE 9.2 mph - N/A   Partly Cloudy
11:53 AM 41.0 °F 34.3 °F 24.1 °F 51% 30.25 in 10.0 mi NE 11.5 mph - N/A   Partly Cloudy
12:53 PM 41.0 °F 33.9 °F 21.9 °F 47% 30.23 in 10.0 mi NE 12.7 mph - N/A   Partly Cloudy
1:53 PM 43.0 °F 36.4 °F 24.1 °F 47% 30.21 in 10.0 mi NE 12.7 mph - N/A   Mostly Cloudy
2:53 PM 41.0 °F 32.8 °F 21.9 °F 47% 30.22 in 10.0 mi ENE 16.1 mph - N/A   Mostly Cloudy
3:53 PM 39.9 °F 31.4 °F 21.0 °F 47% 30.25 in 10.0 mi NE 16.1 mph - N/A   Overcast
4:53 PM 39.0 °F 29.9 °F 19.9 °F 46% 30.26 in 10.0 mi NE 17.3 mph - N/A   Overcast
5:53 PM 39.0 °F 31.0 °F 19.9 °F 46% 30.29 in 10.0 mi NE 13.8 mph - N/A   Overcast
6:53 PM 37.9 °F 31.5 °F 21.0 °F 51% 30.34 in 10.0 mi NE 9.2 mph - N/A   Overcast
7:53 PM 37.0 °F 28.5 °F 21.0 °F 52% 30.38 in 10.0 mi NE 13.8 mph - N/A   Overcast
8:53 PM 37.0 °F 28.5 °F 21.0 °F 52% 30.41 in 10.0 mi NNE 13.8 mph - N/A   Overcast
9:53 PM 32.0 °F 20.8 °F 24.1 °F 73% 30.43 in 10.0 mi NNE 17.3 mph - N/A   Overcast
10:07 PM 32.0 °F 20.1 °F 24.1 °F 73% 30.40 in 9.0 mi NNE 19.6 mph 24.2 mph N/A   Overcast
10:53 PM 32.0 °F 20.1 °F 24.1 °F 73% 30.47 in 7.0 mi NNE 19.6 mph 28.8 mph 0.00 in Snow Light Snow
11:53 PM 30.9 °F 19.4 °F 24.1 °F 76% 30.48 in 6.0 mi NE 17.3 mph - 0.00 in Snow Light Snow